Regional Weather Roundup
Issued by NWS Boston, MA

Current Version | Previous Version | Text Only | Print | Product List | Glossary Off
Versions: 1 2 3 4 5 6 7 8 9 10 11 12 13 14 15 16 17 18 19 20 21 22 23 24 25 26 27 28 29 30 31 32 33 34 35 36 37 38 39 40 41 42 43 44 45 46 47 48 49 50
000 ASUS41 KBOX 281910 RWRBOX REGIONAL WEATHER ROUNDUP NATIONAL WEATHER SERVICE TAUNTON MA 300 PM EDT WED JUN 28 2017 NOTE: "FAIR" INDICATES FEW OR NO CLOUDS BELOW 12,000 FEET WITH NO SIGNIFICANT WEATHER AND/OR OBSTRUCTIONS TO VISIBILITY. MAZALL-282000- EASTERN MASSACHUSETTS CITY SKY/WX TMP DP RH WIND PRES REMARKS BOSTON MOSUNNY 75 49 39 W14 30.03R BEVERLY MOSUNNY 73 51 46 NW10 30.02R LAWRENCE MOSUNNY 77 50 38 W14 30.03F BEDFORD PTSUNNY 77 46 33 W12G20 30.02S BLUE HILL N/A 75 48 38 MISG 30.04S NORWOOD CLOUDY 76 50 40 W14 30.04R MARSHFIELD MOSUNNY 77 48 36 W9G18 30.03S PLYMOUTH MOSUNNY 77 47 34 W13G21 30.05R TAUNTON MOSUNNY 75 46 35 W12 30.05R NEW BEDFORD MOSUNNY 75 48 38 NW9G28 30.04R $$ MAZALL-282000- CAPE COD AND THE ISLANDS CITY SKY/WX TMP DP RH WIND PRES REMARKS FALMOUTH SUNNY 73 55 53 SW18G25 30.07R HYANNIS MOSUNNY 75 56 51 SW16 30.03R CHATHAM PTSUNNY 73 60 63 SW12G21 30.07R PROVINCETOWN SUNNY 73 52 47 W8 30.06R NANTUCKET SUNNY 69 58 67 SW21 30.08R MARTHAS VNYRD SUNNY 73 54 51 SW16G24 30.07R $$ MAZALL-282000- CENTRAL AND WESTERN MASSACHUSETTS CITY SKY/WX TMP DP RH WIND PRES REMARKS WORCESTER NOT AVBL FITCHBURG PTSUNNY 75 47 36 NW8G17 30.05S ORANGE MOSUNNY 74 47 38 W14G23 30.06S SPRINGFIELD MOSUNNY 76 48 37 W17 30.06S WESTFIELD PTSUNNY 77 48 35 W15 30.07S NORTH ADAMS MOSUNNY 71 48 43 W17G23 30.07F PITTSFIELD MOSUNNY 69 48 47 W9G21 30.09F $$ RIZALL-282000- RHODE ISLAND CITY SKY/WX TMP DP RH WIND PRES REMARKS PROVIDENCE MOSUNNY 76 46 34 W16G22 30.06S NEWPORT SUNNY 77 50 38 NW8G18 30.06R BLOCK ISLAND SUNNY 72 57 59 SW15 30.11R WESTERLY PTSUNNY 72 54 53 W8G20 30.10R $$ CTZALL-282000- CONNECTICUT CITY SKY/WX TMP DP RH WIND PRES REMARKS BRADLEY INTL PTSUNNY 77 49 37 W12 30.08S HARTFORD PTSUNNY 76 46 34 NW12G21 30.08S BRIDGEPORT MOSUNNY 79 49 34 W10G20 30.08F DANBURY MOSUNNY 75 50 41 NW8 30.10F GROTON PTSUNNY 71 55 56 SW13G23 30.08R NEW HAVEN MOSUNNY 76 49 38 NW12G20 30.10R CHESTER FAIR 75 45 33 NW15G23 30.10S MERIDEN MOSUNNY 75 49 39 VRB5 30.09S WILLIMANTIC MOSUNNY 77 47 34 W10G18 30.09R OXFORD MOSUNNY 73 48 40 W6 30.11F $$ MEZ002-015-021-024-NHZ003-005-008-011-012-014-VTZ005-008-282000- NORTHERN NEW ENGLAND CITY SKY/WX TMP DP RH WIND PRES REMARKS PORTLAND ME CLOUDY 69 54 58 NW9 29.99R BANGOR ME TSTM 64 56 75 W6 29.94R CONCORD NH PTSUNNY 74 48 39 NW13 30.02S MANCHESTER NH MOSUNNY 75 43 31 NW10 30.01S NASHUA NH PTSUNNY 76 49 38 W10 30.03S PORTSMOUTH NH MOSUNNY 73 50 43 W10 30.00R JAFFREY NH MOSUNNY 72 47 40 W13 30.07R KEENE NH PTSUNNY 72 49 44 W7 30.06R BURLINGTON VT LGT RAIN 71 52 50 NW7 30.01F MT. WASHINGTON FOG 39 39 100 W39 N/A VSB 1/16WCI 26 $$ NYZ052-076-282000- EASTERN NEW YORK CITY SKY/WX TMP DP RH WIND PRES REMARKS ALBANY MOSUNNY 75 50 41 W18 30.07F NEW YORK CITY MOSUNNY 78 50 37 NW17G23 30.09F $$ ANZALL-282000- MARINE OBSERVATIONS STATION/POSITION TIME TEMP WIND PRES VSBY WAVE AIR SEA DIR/SP/G HT/PER (UTC) (F) (DEG/KT/KT) (MB) (MI) (FT/S) BOSTON BUOY 1750 64 62 260/ 6/ 6 1016.5 1 BUZZARDS BAY 1800 64 230/ 16/ 17 1018.4R NANTUCKET SOUND 1750 67 1017.2 1/ 3 MASS BAY-STELLWA 1804 65 62 240/ 6/ 8 1015.7R 1 ISLE OF SHOALS 1800 68 280/ 12/ 13 1015.7R S OF BLOCK IS 1855 65 N/A 2/ 3 $$ ......................KEY......................... SKY/WX - SKY CONDITION/PRESENT WEATHER TMP - TEMPERATURE IN FAHRENHEIT DWPT - DEWPOINT IN FAHRENHEIT RH - RELATIVE HUMIDITY IN PERCENT WIND - DIRECTION AND SPEED IN MPH PRES - MEAN SEA LEVEL PRESSURE IN INCHES OF HG WCI - WIND CHILL INDEX VSB - VISIBILITY IN MILES HX - HEAT INDEX TC - TEMPERATURE IN CELSIUS VRB - VARIABLE WIND DIRECTION N/A - NOT AVAILABLE

USA.gov is the U.S. government's official web portal to all federal, state and local government web resources and services.